TimeEDT,TemperatureF,Dew PointF,Humidity,Sea Level PressureIn,VisibilityMPH,Wind Direction,Wind SpeedMPH,Gust SpeedMPH,PrecipitationIn,Events,Conditions,WindDirDegrees,DateUTC
12:53 AM,48.0,46.0,93,29.79,10.0,NNW,13.8,21.9,0.00,Rain,Light Rain,340,2013-05-25 04:53:00
1:53 AM,48.9,46.0,90,29.77,10.0,NNW,10.4,20.7,0.00,,Mostly Cloudy,340,2013-05-25 05:53:00
2:40 AM,48.2,46.4,93,29.75,10.0,NW,8.1,-,N/A,,Overcast,320,2013-05-25 06:40:00
2:53 AM,48.0,46.0,93,29.77,10.0,NW,6.9,-,N/A,,Overcast,320,2013-05-25 06:53:00
3:53 AM,48.0,46.0,93,29.78,5.0,NNW,6.9,-,0.00,Rain,Light Rain,330,2013-05-25 07:53:00
4:12 AM,48.2,46.4,93,29.78,6.0,NNW,4.6,-,0.00,Rain,Light Rain,330,2013-05-25 08:12:00
4:41 AM,48.2,46.4,93,29.77,6.0,NNW,8.1,-,0.00,Rain,Light Rain,340,2013-05-25 08:41:00
4:53 AM,48.0,46.0,93,29.76,4.0,North,11.5,-,0.00,Rain,Light Rain,350,2013-05-25 08:53:00
5:09 AM,48.2,46.4,93,29.76,5.0,North,8.1,-,0.00,Rain,Light Rain,350,2013-05-25 09:09:00
5:22 AM,48.2,46.4,93,29.76,7.0,NNW,8.1,-,0.00,Rain,Light Rain,340,2013-05-25 09:22:00
5:45 AM,48.2,46.4,93,29.77,9.0,NW,3.5,-,0.00,,Overcast,320,2013-05-25 09:45:00
5:53 AM,48.0,46.9,96,29.77,10.0,Variable,4.6,-,0.00,,Overcast,0,2013-05-25 09:53:00
6:10 AM,48.2,46.4,93,29.78,4.0,NW,5.8,-,0.00,Rain,Light Rain,320,2013-05-25 10:10:00
6:17 AM,48.2,46.4,93,29.78,2.5,NNW,5.8,-,0.00,Rain,Light Rain,330,2013-05-25 10:17:00
6:25 AM,48.2,46.4,93,29.78,2.0,NNW,6.9,-,0.01,Rain,Light Rain,340,2013-05-25 10:25:00
6:33 AM,48.2,46.4,93,29.77,3.0,NNW,5.8,-,0.01,Rain,Light Rain,340,2013-05-25 10:33:00
6:53 AM,48.9,46.9,93,29.78,4.0,Calm,Calm,-,0.01,,Overcast,0,2013-05-25 10:53:00
7:33 AM,48.2,46.4,93,29.78,6.0,NNW,5.8,-,N/A,,Overcast,330,2013-05-25 11:33:00
7:53 AM,48.9,46.9,93,29.78,4.0,NNW,5.8,-,0.00,Rain,Light Rain,330,2013-05-25 11:53:00
8:06 AM,48.2,48.2,100,29.78,3.0,NNW,5.8,-,0.00,Rain,Light Rain,330,2013-05-25 12:06:00
8:28 AM,48.2,46.4,93,29.77,4.0,NNW,9.2,-,0.00,,Overcast,330,2013-05-25 12:28:00
8:53 AM,50.0,48.0,93,29.78,6.0,NNW,11.5,17.3,0.00,,Overcast,330,2013-05-25 12:53:00
9:20 AM,50.0,46.4,87,29.77,5.0,NNW,11.5,-,N/A,,Overcast,340,2013-05-25 13:20:00
9:25 AM,50.0,48.2,94,29.77,5.0,NNW,12.7,-,N/A,,Overcast,330,2013-05-25 13:25:00
9:49 AM,50.0,46.4,87,29.77,5.0,NNW,9.2,-,N/A,,Overcast,340,2013-05-25 13:49:00
9:53 AM,50.0,48.0,93,29.77,5.0,NW,8.1,-,N/A,,Overcast,320,2013-05-25 13:53:00
10:45 AM,50.0,48.2,94,29.77,3.0,Variable,5.8,-,0.00,Rain,Light Rain,0,2013-05-25 14:45:00
10:53 AM,50.0,46.9,89,29.77,3.0,NW,8.1,-,0.00,Rain,Light Rain,310,2013-05-25 14:53:00
11:17 AM,50.0,46.4,87,29.76,5.0,NW,6.9,-,0.00,,Overcast,320,2013-05-25 15:17:00
11:26 AM,51.8,48.2,88,29.76,6.0,NW,6.9,16.1,0.00,,Overcast,320,2013-05-25 15:26:00
11:53 AM,52.0,48.0,86,29.76,8.0,NW,6.9,17.3,0.00,Rain,Light Rain,320,2013-05-25 15:53:00
12:17 PM,51.8,48.2,88,29.75,4.0,Variable,5.8,19.6,0.00,Rain,Light Rain,0,2013-05-25 16:17:00
12:43 PM,51.8,46.4,82,29.75,10.0,NW,10.4,20.7,0.00,,Overcast,320,2013-05-25 16:43:00
12:53 PM,51.1,46.0,83,29.75,10.0,NNW,8.1,20.7,0.00,,Overcast,330,2013-05-25 16:53:00
1:53 PM,48.9,46.0,90,29.76,4.0,NW,12.7,18.4,0.00,Rain,Light Rain,320,2013-05-25 17:53:00
2:03 PM,50.0,46.4,87,29.75,6.0,Variable,6.9,16.1,0.00,Rain,Light Rain,0,2013-05-25 18:03:00
2:17 PM,50.0,44.6,82,29.75,8.0,NW,8.1,23.0,0.00,Rain,Light Rain,320,2013-05-25 18:17:00
2:53 PM,50.0,45.0,83,29.75,10.0,NW,9.2,25.3,0.00,Rain,Light Rain,320,2013-05-25 18:53:00
3:16 PM,50.0,44.6,82,29.75,10.0,NW,9.2,24.2,0.00,Rain,Light Rain,320,2013-05-25 19:16:00
3:48 PM,50.0,44.6,82,29.75,10.0,NW,17.3,27.6,0.00,Rain,Light Rain,310,2013-05-25 19:48:00
3:53 PM,50.0,43.0,77,29.75,10.0,NW,10.4,28.8,0.00,Rain,Light Rain,310,2013-05-25 19:53:00
4:53 PM,48.9,43.0,80,29.76,10.0,NW,13.8,25.3,0.00,,Overcast,320,2013-05-25 20:53:00
5:53 PM,48.0,39.9,74,29.77,10.0,NNW,19.6,33.4,0.00,,Overcast,330,2013-05-25 21:53:00
6:53 PM,46.9,39.9,77,29.78,10.0,NW,12.7,27.6,0.00,Rain,Light Rain,320,2013-05-25 22:53:00
7:00 PM,46.4,39.2,76,29.78,10.0,NW,9.2,21.9,0.00,Rain,Light Rain,320,2013-05-25 23:00:00
7:40 PM,46.4,37.4,71,29.79,10.0,NW,11.5,28.8,0.00,Rain,Light Rain,320,2013-05-25 23:40:00
7:53 PM,45.0,39.0,80,29.80,10.0,NW,10.4,19.6,0.00,Rain,Light Rain,320,2013-05-25 23:53:00
8:07 PM,44.6,39.2,81,29.80,10.0,NW,9.2,24.2,0.00,Rain,Light Rain,320,2013-05-26 00:07:00
8:39 PM,44.6,39.2,81,29.80,10.0,NW,9.2,24.2,0.00,Rain,Light Rain,320,2013-05-26 00:39:00
8:53 PM,45.0,39.0,80,29.81,10.0,WNW,12.7,23.0,0.00,,Overcast,300,2013-05-26 00:53:00
9:20 PM,44.6,39.2,81,29.82,10.0,WNW,10.4,-,N/A,,Overcast,300,2013-05-26 01:20:00
9:51 PM,44.6,37.4,76,29.82,10.0,WNW,8.1,17.3,N/A,,Overcast,300,2013-05-26 01:51:00
9:53 PM,45.0,37.9,76,29.82,10.0,Variable,5.8,17.3,N/A,,Overcast,0,2013-05-26 01:53:00
10:23 PM,44.6,37.4,76,29.82,10.0,WNW,6.9,-,N/A,,Overcast,300,2013-05-26 02:23:00
10:53 PM,44.1,37.9,79,29.83,10.0,WNW,10.4,20.7,N/A,,Overcast,300,2013-05-26 02:53:00
11:53 PM,44.1,37.9,79,29.82,10.0,Variable,5.8,16.1,N/A,,Overcast,0,2013-05-26 03:53:00